Regional Weather Roundup
Issued by NWS

Home | Current Version | Previous Version | Text Only | Print | Product List | Glossary On
Versions: 1 2 3 4 5 6 7 8 9 10 11 12 13 14 15 16 17 18 19 20 21 22 23 24 25 26 27 28 29 30 31 32 33 34 35 36 37 38 39 40 41 42 43 44 45 46 47 48 49 50
112
ASUS43 KMKX 190621
RWRWI

WISCONSIN REGIONAL WEATHER ROUNDUP
NATIONAL WEATHER SERVICE MILWAUKEE/SULLIVAN WI
100 AM CDT THU OCT 19 2017

NOTE: "FAIR" INDICATES FEW OR NO CLOUDS BELOW 12,000 FEET WITH NO
SIGNIFICANT WEATHER AND/OR OBSTRUCTIONS TO VISIBILITY.

WIZ001-002-006>008-014>016-023>028-190700-
NORTHWEST WISCONSIN

CITY           SKY/WX    TMP DP  RH WIND       PRES   REMARKS
SUPERIOR ARPT  CLOUDY    47  21  35 SW10      29.91R
6HR MIN TEMP:  47; 6HR MAX TEMP:  59;

ASHLAND        CLOUDY    49  20  31 SW12      29.90S
6HR MIN TEMP:  49; 6HR MAX TEMP:  58;

HAYWARD        CLOUDY    50  19  29 SW7       29.95R
6HR MIN TEMP:  50; 6HR MAX TEMP:  62;

SIREN          CLOUDY    47  25  41 W7        29.97S
6HR MIN TEMP:  47; 6HR MAX TEMP:  59;

CUMBERLAND     CLOUDY    43  27  52 W5        29.98S
RICE LAKE      CLOUDY    47  26  43 CALM      30.00R
6HR MIN TEMP:  47; 6HR MAX TEMP:  60;

CHETEK         CLOUDY    49  26  40 W5        29.99R
6HR MIN TEMP:  49; 6HR MAX TEMP:  62;

LADYSMITH      CLOUDY    49  23  36 W5        29.98S
6HR MIN TEMP:  49; 6HR MAX TEMP:  60;

EAU CLAIRE     CLOUDY    48  27  44 W6        29.99R
6HR MIN TEMP:  48; 6HR MAX TEMP:  63;

MENOMONIE      PTCLDY    49  29  45 W5        30.00S
6HR MIN TEMP:  49; 6HR MAX TEMP:  64;

NEW RICHMOND   CLOUDY    46  27  48 W7        30.00S
OSCEOLA        CLOUDY    45  30  55 W3        30.03R
6HR MIN TEMP:  45; 6HR MAX TEMP:  60;

$$

WIZ003>005-009-010-017-018-190700-
NORTH CENTRAL WISCONSIN

CITY           SKY/WX    TMP DP  RH WIND       PRES   REMARKS
MANITOWISH WTR CLOUDY    47  20  34 W7        29.90R
6HR MIN TEMP:  47; 6HR MAX TEMP:  60;

ARBOR VITAE    CLOUDY    52  21  30 W8G16     29.91R
6HR MIN TEMP:  52; 6HR MAX TEMP:  62;

WOODRUFF       CLOUDY    52  21  30 W8G16     29.91R
6HR MIN TEMP:  52; 6HR MAX TEMP:  62;

RHINELANDER    CLOUDY    48  22  35 W10       29.92R
6HR MIN TEMP:  48; 6HR MAX TEMP:  63;

EAGLE RIVER    CLOUDY    49  17  28 W10G16    29.90R
6HR MIN TEMP:  49; 6HR MAX TEMP:  60;

LAND O LAKES   CLEAR     50  18  27 W7        29.90R
6HR MIN TEMP:  50; 6HR MAX TEMP:  63;

PHILLIPS       CLOUDY    48  21  34 W5        29.94R
6HR MIN TEMP:  48; 6HR MAX TEMP:  61;

TOMAHAWK       CLOUDY    49  19  31 W8        29.94R
6HR MIN TEMP:  49; 6HR MAX TEMP:  63;

MEDFORD        CLOUDY    48  24  38 W7        29.96R
6HR MIN TEMP:  48; 6HR MAX TEMP:  61;

MERRILL        CLOUDY    51  24  34 W12G17    29.95R
6HR MIN TEMP:  51; 6HR MAX TEMP:  64;

$$

WIZ029-030-035-036-043>047-190700-
CENTRAL WISCONSIN

CITY           SKY/WX    TMP DP  RH WIND       PRES   REMARKS
WAUSAU         CLOUDY    51  26  37 W12       29.94R
6HR MIN TEMP:  51; 6HR MAX TEMP:  65;

MOSINEE        CLOUDY    50  28  43 W10       29.97R
MARSHFIELD     CLOUDY    49  25  39 W9        29.97R
6HR MIN TEMP:  49; 6HR MAX TEMP:  63;

STEVENS POINT  CLOUDY    53  25  33 W9        29.97R
6HR MIN TEMP:  53; 6HR MAX TEMP:  63;

WAUPACA        CLOUDY    59  36  42 W10G17    29.96R
6HR MIN TEMP:  58; 6HR MAX TEMP:  66;

WAUTOMA        CLOUDY    56  32  40 W10       29.98R
6HR MIN TEMP:  55; 6HR MAX TEMP:  65;

WISC RAPIDS    CLOUDY    54  27  35 NW12      29.99R
6HR MIN TEMP:  53; 6HR MAX TEMP:  64;

CAMP DOUGLAS   CLEAR     54  25  33 W10       30.00R
6HR MIN TEMP:  54; 6HR MAX TEMP:  67;

$$

WIZ011>013-019>022-031-037>040-048>050-190700-
NORTHEAST WISCONSIN

CITY           SKY/WX    TMP DP  RH WIND       PRES   REMARKS
ANTIGO         CLOUDY    50  25  36 W15       29.93R
6HR MIN TEMP:  50; 6HR MAX TEMP:  62;

SHAWANO        CLOUDY    60  30  31 W10G18    29.91R
6HR MIN TEMP:  60; 6HR MAX TEMP:  68;

OCONTO         CLEAR     58  44  60 W8        29.88R
6HR MIN TEMP:  58; 6HR MAX TEMP:  66;

STURGEON BAY   MOCLDY    60  47  61 W14       29.88R
6HR MIN TEMP:  58; 6HR MAX TEMP:  64;

GREEN BAY      CLOUDY    58  47  66 W9        29.91R
6HR MIN TEMP:  58; 6HR MAX TEMP:  65;

MANITOWOC      MOCLDY    63  46  54 W18G25    29.91R
6HR MIN TEMP:  57; 6HR MAX TEMP:  64;

APPLETON       CLOUDY    55  41  58 W10       29.92R
CLINTONVILLE   CLOUDY    57  27  30 NW13G18   29.93R
OSHKOSH        CLOUDY    57  47  69 W6        29.94R
6HR MIN TEMP:  57; 6HR MAX TEMP:  66;

$$

WIZ032>034-041-042-053>061-190700-
SOUTHWEST WISCONSIN

CITY           SKY/WX    TMP DP  RH WIND       PRES   REMARKS
LA CROSSE      CLEAR     54  32  43 NW7       30.02R
6HR MIN TEMP:  54; 6HR MAX TEMP:  68;

SPARTA         CLOUDY    53  26  35 W3        30.03R
6HR MIN TEMP:  52; 6HR MAX TEMP:  65;

VIROQUA        CLEAR     54  30  40 NW10      30.02R
6HR MIN TEMP:  53; 6HR MAX TEMP:  64;

BOSCOBEL       CLEAR     50  46  86 CALM      30.02R
6HR MIN TEMP:  48; 6HR MAX TEMP:  66;

PRAIRIE DU CHI CLEAR     52  45  78 CALM      30.02R
6HR MIN TEMP:  52; 6HR MAX TEMP:  67;

PLATTEVILLE    CLEAR     53  48  84 W6        30.02R
6HR MIN TEMP:  53; 6HR MAX TEMP:  60;

$$

WIZ056-057-062-063-064-067-068-190700-
SOUTH CENTRAL WISCONSIN

CITY           SKY/WX    TMP DP  RH WIND       PRES   REMARKS
REEDSBURG      CLOUDY    56  41  58 NW7       29.99R
6HR MIN TEMP:  56; 6HR MAX TEMP:  64;

BARABOO/DELLS  CLOUDY    56  42  59 NW7       30.00R
6HR MIN TEMP:  56; 6HR MAX TEMP:  63;

LONE ROCK      CLEAR     56  48  74 W5        30.00R
6HR MIN TEMP:  51; 6HR MAX TEMP:  66;

MINERAL POINT  CLEAR     55  48  76 W5        30.01R
MADISON        PTCLDY    59  47  64 VRB5      29.98R
6HR MIN TEMP:  59; 6HR MAX TEMP:  67;

MIDDLETON      PTCLDY    58  47  66 W9        29.99R
6HR MIN TEMP:  58; 6HR MAX TEMP:  65;

WATERTOWN      CLEAR     56  46  66 SW8       29.98R
6HR MIN TEMP:  55; 6HR MAX TEMP:  62;

MONROE         CLEAR     54  43  66 SW12      30.00R
JANESVILLE     CLEAR     55  43  62 SW7       29.99R
$$

WIZ051-052-058>065-066-070>072-190700-
SOUTHEAST WISCONSIN

CITY           SKY/WX    TMP DP  RH WIND       PRES   REMARKS
MILWAUKEE      PTCLDY    60  44  55 SW12      29.97S
6HR MIN TEMP:  60; 6HR MAX TEMP:  67;

WAUKESHA       CLEAR     55  41  58 SW12      29.98S
MILWAUKEE/TIMM CLEAR     59  39  47 SW10G16   29.97S
RACINE         CLEAR     61  44  53 SW12      30.00S
6HR MIN TEMP:  60; 6HR MAX TEMP:  65;

BURLINGTON     CLEAR     57  46  65 SW13G18   29.99S
6HR MIN TEMP:  55; 6HR MAX TEMP:  61;

KENOSHA        CLEAR     60  43  53 SW14      29.99F
6HR MIN TEMP:  59; 6HR MAX TEMP:  64;

FOND DU LAC    CLOUDY    56  44  64 SW9       29.95R
6HR MIN TEMP:  56; 6HR MAX TEMP:  65;

SHEBOYGAN      CLOUDY    62  47  57 W13G25    29.92R
6HR MIN TEMP:  59; 6HR MAX TEMP:  64;

WEST BEND      CLOUDY    59  43  55 W13G18    29.95R
JUNEAU         PTCLDY    54  45  70 SW9       29.98R
6HR MIN TEMP:  54; 6HR MAX TEMP:  62;

$$

LSZ147-162-190700-
LAKE SUPERIOR

STATION/POSITION TIME  TEMP    WIND        PRES    WAVE
                       AIR SEA DIR/SP/G            HT/PER
                 (UTC) (F)     (DEG/KT/KT) (MB)    (FT/S)
W MID LAKE BUOY  0550   55 53              1008.3S   6/ 6
DEVILS ISLAND    0600   56     250/ 29/ 35 1010.4R
SAXON HARBOR     0530   54     210/  7/ 11 1011.9S
$$

LMZ867-665-643>646-190700-
LAKE MICHIGAN

STATION/POSITION TIME  TEMP    WIND        PRES    WAVE
                       AIR SEA DIR/SP/G            HT/PER
                 (UTC)



USA.gov is the U.S. government's official web portal to all federal, state and local government web resources and services.